Weather History for Fort Yukon, AK

Change the Weather History Date:

Wednesday, September 4, 2013

  Actual Average Record
Temperature  
Mean Temperature 52 °F -  
Max Temperature 63 °F 53 °F 66 °F (2007)
Min Temperature 42 °F 35 °F 24 °F (2004)
Degree Days  
Heating Degree Days 12    
Growing Degree Days 2 (Base 50)    
Moisture  
Dew Point 43 °F    
Average Humidity 74    
Maximum Humidity 93    
Minimum Humidity 40    
Precipitation  
Precipitation 0.00 in - - ()
Sea Level Pressure  
Sea Level Pressure 29.41 in    
Wind  
Wind Speed 3 mph (SW)    
Max Wind Speed 9 mph    
Max Gust Speed -    
Visibility 8 miles    
Events Fog    
Averages and records for this station are not official NWS values.
T = Trace of Precipitation, MM = Missing Value Source: NWS Daily Summary

Daily Weather History Graph

Daily Weather History Graph

Search for Another Location

Airport:

Trip Planner

Search our weather history database for the weather conditions in past years. The results will help you decide how hot, cold, wet, or windy it might be!

Date:

Astronomy

Sep. 04, 2013 Rise Set
Actual Time 6:25 AM AKDT 8:52 PM AKDT
Civil Twilight 5:27 AM AKDT 9:49 PM AKDT
Nautical Twilight 4:03 AM AKDT 11:11 PM AKDT
Astronomical Twilight 2:12 AM AKDT 1:07 AM AKDT
Moon 5:53 AM AKDT (9/4) 7:56 PM AKDT (9/4)
Length of Visible Light 16h 22m
Length of Day
14h 26m
Waning Crescent, 0% of the Moon is Illuminated
Sep 4
Waning Crescent
Sep 5
New
Sep 12
First Quarter
Sep 19
Full
Sep 26
Last Quarter

Hourly Weather History & Observations

Time (AKDT) Temp. Windchill Dew Point Humidity Pressure Visibility Wind Dir Wind Speed Gust Speed Precip Events Conditions
3:52 AM 44.6 °F - 41.0 °F 87% 29.37 in 10.0 mi Calm Calm - N/A   Scattered Clouds
7:01 AM 44.6 °F 42.2 °F 41.0 °F 87% 29.38 in 10.0 mi South 4.6 mph - N/A   Partly Cloudy
7:42 AM 42.8 °F 41.1 °F 39.2 °F 87% 29.39 in 0.5 mi SSW 3.5 mph - N/A Fog Fog
7:50 AM 42.8 °F 41.1 °F 39.2 °F 87% 29.39 in 0.8 mi SSW 3.5 mph - N/A Fog Fog
7:55 AM 42.8 °F - 39.2 °F 87% 29.39 in 1.2 mi Calm Calm - N/A   Partly Cloudy
7:59 AM 42.8 °F - 39.2 °F 87% 29.39 in 2.0 mi Calm Calm - N/A   Partly Cloudy
8:04 AM 44.6 °F - 39.2 °F 81% 29.39 in 3.0 mi Calm Calm - N/A   Partly Cloudy
8:21 AM 44.6 °F - 41.0 °F 87% 29.39 in 10.0 mi Calm Calm - N/A   Mostly Cloudy
8:53 AM 44.6 °F 42.2 °F 42.8 °F 93% 29.39 in 10.0 mi SW 4.6 mph - N/A   Mostly Cloudy
9:05 AM 44.6 °F 42.2 °F 42.8 °F 93% 29.39 in 10.0 mi SW 4.6 mph - N/A   Mostly Cloudy
9:12 AM 46.4 °F 42.9 °F 42.8 °F 87% 29.40 in 10.0 mi SW 6.9 mph - N/A   Mostly Cloudy
9:54 AM 48.2 °F - 44.6 °F 87% 29.40 in 10.0 mi West 5.8 mph - N/A   Scattered Clouds
10:55 AM 51.8 °F - 44.6 °F 76% 29.41 in 10.0 mi West 4.6 mph - N/A   Partly Cloudy
11:55 AM 55.4 °F - 46.4 °F 72% 29.43 in 10.0 mi Calm Calm - N/A   Partly Cloudy
1:01 PM 59.0 °F - 44.6 °F 59% 29.43 in 10.0 mi West 6.9 mph - N/A   Partly Cloudy
1:55 PM 60.8 °F - 44.6 °F 55% 29.43 in 10.0 mi West 4.6 mph - N/A   Partly Cloudy
2:48 PM 60.8 °F - 44.6 °F 55% 29.44 in 10.0 mi West 6.9 mph - N/A   Partly Cloudy
3:54 PM 62.6 °F - 44.6 °F 52% 29.44 in 10.0 mi West 4.6 mph - N/A   Mostly Cloudy
4:55 PM 62.6 °F - 42.8 °F 48% 29.45 in 10.0 mi West 9.2 mph - N/A   Mostly Cloudy
5:55 PM 60.8 °F - 42.8 °F 52% 29.47 in 10.0 mi SSW 8.1 mph - N/A   Mostly Cloudy
6:54 PM 57.2 °F - 44.6 °F 63% 29.49 in 10.0 mi South 3.5 mph - N/A   Mostly Cloudy